User: anonymous   Login
Location: Lawrence Hall of Science
(37.8785°N, 122.2415°W)
Time: 07:10:50
(UTC-07:00)
Language:

ARGOS - Orbit

View from above orbital plane
View from above orbital plane
View from above satellite
View from above satellite

Ground track
Ground track

The orbit data is extracted from the following two-line orbital elements,

1 25634U 99008A   16151.82095249 -.00000024  00000-0  93858-5 0  9994
2 25634  98.6690 217.7900 0009393 226.0130 134.0273 14.19288979894227
Epoch (UTC): 30 May 2016 19:42:10
Eccentricity: 0.0009393
inclination: 98.6690°
perigee height: 821 km
apogee height: 834 km
right ascension of ascending node: 217.7900°
argument of perigee: 226.0130°
revolutions per day: 14.19288979
mean anomaly at epoch: 134.0273°
orbit number at epoch: 89422

The dashed part of the orbit path shows where the satellite is in the earth's shadow,  

DLR